Time,TemperatureF,DewpointF,PressureIn,WindDirection,WindDirectionDegrees,WindSpeedMPH,WindSpeedGustMPH,Humidity,HourlyPrecipIn,Conditions,Clouds,dailyrainin,SoftwareType,DateUTC
2013-11-09 00:43:00,43.0,39.0,-100.00,West,260,4.0,13.0,84,-99.99,,,-99.99,,2013-11-09 06:43:00,
2013-11-09 00:54:00,43.0,39.0,-100.00,West,260,4.0,13.0,84,-99.99,,,-99.99,,2013-11-09 06:54:00,
2013-11-09 01:02:00,43.0,39.0,-100.00,West,260,4.0,13.0,84,-99.99,,,-99.99,,2013-11-09 07:02:00,
2013-11-09 01:42:00,44.0,38.0,-100.00,West,275,4.0,14.0,80,-99.99,,,-99.99,,2013-11-09 07:42:00,
2013-11-09 01:53:00,44.0,38.0,-100.00,West,275,4.0,14.0,80,-99.99,,,-99.99,,2013-11-09 07:53:00,
2013-11-09 02:02:00,44.0,38.0,-100.00,West,275,4.0,14.0,80,-99.99,,,-99.99,,2013-11-09 08:02:00,
2013-11-09 03:43:00,45.0,39.0,-100.00,WSW,255,4.0,9.0,81,-99.99,,,-99.99,,2013-11-09 09:43:00,
2013-11-09 03:53:00,45.0,39.0,-100.00,WSW,255,4.0,9.0,81,-99.99,,,-99.99,,2013-11-09 09:53:00,
2013-11-09 04:03:00,45.0,39.0,-100.00,WSW,255,4.0,9.0,81,-99.99,,,-99.99,,2013-11-09 10:03:00,
2013-11-09 04:43:00,45.0,40.0,-100.00,WSW,245,4.0,10.0,84,-99.99,,,-99.99,,2013-11-09 10:43:00,
2013-11-09 04:52:00,45.0,40.0,-100.00,WSW,245,4.0,10.0,84,-99.99,,,-99.99,,2013-11-09 10:52:00,
2013-11-09 05:03:00,45.0,40.0,-100.00,WSW,245,4.0,10.0,84,-99.99,,,-99.99,,2013-11-09 11:03:00,
2013-11-09 05:43:00,46.0,42.0,-100.00,West,280,5.0,15.0,86,-99.99,,,-99.99,,2013-11-09 11:43:00,
2013-11-09 05:52:00,46.0,42.0,-100.00,West,280,5.0,15.0,86,-99.99,,,-99.99,,2013-11-09 11:52:00,
2013-11-09 06:02:00,46.0,42.0,-100.00,West,280,5.0,15.0,86,-99.99,,,-99.99,,2013-11-09 12:02:00,
2013-11-09 06:42:00,45.0,42.0,-100.00,West,275,8.0,17.0,87,-99.99,,,-99.99,,2013-11-09 12:42:00,
2013-11-09 06:52:00,45.0,42.0,-100.00,West,275,8.0,17.0,87,-99.99,,,-99.99,,2013-11-09 12:52:00,
2013-11-09 07:02:00,45.0,42.0,-100.00,West,275,8.0,17.0,87,-99.99,,,-99.99,,2013-11-09 13:02:00,
2013-11-09 07:42:00,44.0,39.0,-100.00,North,10,7.0,20.0,82,-99.99,,,-99.99,,2013-11-09 13:42:00,
2013-11-09 07:52:00,44.0,39.0,-100.00,North,10,7.0,20.0,82,-99.99,,,-99.99,,2013-11-09 13:52:00,
2013-11-09 08:02:00,44.0,39.0,-100.00,North,10,7.0,20.0,82,-99.99,,,-99.99,,2013-11-09 14:02:00,
2013-11-09 08:42:00,45.0,39.0,-100.00,North,10,9.0,18.0,81,-99.99,,,-99.99,,2013-11-09 14:42:00,
2013-11-09 08:52:00,45.0,39.0,-100.00,North,10,9.0,18.0,81,-99.99,,,-99.99,,2013-11-09 14:52:00,
2013-11-09 09:02:00,45.0,39.0,-100.00,North,10,9.0,18.0,81,-99.99,,,-99.99,,2013-11-09 15:02:00,
2013-11-09 09:44:00,46.0,40.0,-100.00,North,5,9.0,20.0,81,-99.99,,,-99.99,,2013-11-09 15:44:00,
2013-11-09 09:54:00,46.0,40.0,-100.00,North,5,9.0,20.0,81,-99.99,,,-99.99,,2013-11-09 15:54:00,
2013-11-09 10:03:00,46.0,40.0,-100.00,North,5,9.0,20.0,81,-99.99,,,-99.99,,2013-11-09 16:03:00,
2013-11-09 10:43:00,46.0,40.0,-100.00,North,5,14.0,21.0,81,-99.99,,,-99.99,,2013-11-09 16:43:00,
2013-11-09 10:53:00,46.0,40.0,-100.00,North,5,14.0,21.0,81,-99.99,,,-99.99,,2013-11-09 16:53:00,
2013-11-09 11:03:00,46.0,40.0,-100.00,North,5,14.0,21.0,81,-99.99,,,-99.99,,2013-11-09 17:03:00,
2013-11-09 11:43:00,47.0,40.0,-100.00,North,0,7.0,21.0,79,-99.99,,,-99.99,,2013-11-09 17:43:00,
2013-11-09 11:52:00,47.0,40.0,-100.00,North,0,7.0,21.0,79,-99.99,,,-99.99,,2013-11-09 17:52:00,
2013-11-09 12:02:00,47.0,40.0,-100.00,North,0,7.0,21.0,79,-99.99,,,-99.99,,2013-11-09 18:02:00,
2013-11-09 12:42:00,46.0,39.0,-100.00,North,0,13.0,25.0,78,-99.99,,,-99.99,,2013-11-09 18:42:00,
2013-11-09 12:52:00,46.0,39.0,-100.00,North,0,13.0,25.0,78,-99.99,,,-99.99,,2013-11-09 18:52:00,
2013-11-09 13:02:00,46.0,39.0,-100.00,North,0,13.0,25.0,78,-99.99,,,-99.99,,2013-11-09 19:02:00,
2013-11-09 13:42:00,47.0,38.0,-100.00,SW,235,17.0,26.0,72,-99.99,,,-99.99,,2013-11-09 19:42:00,
2013-11-09 13:52:00,47.0,38.0,-100.00,SW,235,17.0,26.0,72,-99.99,,,-99.99,,2013-11-09 19:52:00,
2013-11-09 14:02:00,47.0,38.0,-100.00,SW,235,17.0,26.0,72,-99.99,,,-99.99,,2013-11-09 20:02:00,
2013-11-09 14:42:00,47.0,37.0,-100.00,North,350,12.0,29.0,69,-99.99,,,-99.99,,2013-11-09 20:42:00,
2013-11-09 14:52:00,47.0,37.0,-100.00,North,350,12.0,29.0,69,-99.99,,,-99.99,,2013-11-09 20:52:00,
2013-11-09 15:03:00,47.0,37.0,-100.00,North,350,12.0,29.0,69,-99.99,,,-99.99,,2013-11-09 21:03:00,
2013-11-09 15:44:00,45.0,35.0,-100.00,SSW,210,10.0,26.0,69,-99.99,,,-99.99,,2013-11-09 21:44:00,
2013-11-09 15:54:00,45.0,35.0,-100.00,SSW,210,10.0,26.0,69,-99.99,,,-99.99,,2013-11-09 21:54:00,
2013-11-09 16:04:00,45.0,35.0,-100.00,SSW,210,10.0,26.0,69,-99.99,,,-99.99,,2013-11-09 22:04:00,
2013-11-09 16:43:00,44.0,34.0,-100.00,SW,215,12.0,24.0,68,-99.99,,,-99.99,,2013-11-09 22:43:00,
2013-11-09 16:54:00,44.0,34.0,-100.00,SW,215,12.0,24.0,68,-99.99,,,-99.99,,2013-11-09 22:54:00,
2013-11-09 17:02:00,44.0,34.0,-100.00,SW,215,12.0,24.0,68,-99.99,,,-99.99,,2013-11-09 23:02:00,
2013-11-09 17:42:00,42.0,30.0,-100.00,SSW,205,19.0,31.0,64,-99.99,,,-99.99,,2013-11-09 23:42:00,
2013-11-09 17:53:00,42.0,30.0,-100.00,SSW,205,19.0,31.0,64,-99.99,,,-99.99,,2013-11-09 23:53:00,
2013-11-09 18:02:00,42.0,30.0,-100.00,SSW,205,19.0,31.0,64,-99.99,,,-99.99,,2013-11-10 00:02:00,
2013-11-09 18:42:00,41.0,30.0,-100.00,SW,215,12.0,22.0,64,-99.99,,,-99.99,,2013-11-10 00:42:00,
2013-11-09 18:52:00,41.0,30.0,-100.00,SW,215,12.0,22.0,64,-99.99,,,-99.99,,2013-11-10 00:52:00,
2013-11-09 19:02:00,41.0,30.0,-100.00,SW,215,12.0,22.0,64,-99.99,,,-99.99,,2013-11-10 01:02:00,
2013-11-09 19:42:00,41.0,29.0,-100.00,SW,230,16.0,31.0,62,-99.99,,,-99.99,,2013-11-10 01:42:00,
2013-11-09 19:52:00,41.0,29.0,-100.00,SW,230,16.0,31.0,62,-99.99,,,-99.99,,2013-11-10 01:52:00,
2013-11-09 20:01:00,41.0,29.0,-100.00,SW,230,16.0,31.0,62,-99.99,,,-99.99,,2013-11-10 02:01:00,
2013-11-09 20:42:00,40.0,27.0,-100.00,SW,215,15.0,29.0,60,-99.99,,,-99.99,,2013-11-10 02:42:00,
2013-11-09 20:52:00,40.0,27.0,-100.00,SW,215,15.0,29.0,60,-99.99,,,-99.99,,2013-11-10 02:52:00,
2013-11-09 21:03:00,40.0,27.0,-100.00,SW,215,15.0,29.0,60,-99.99,,,-99.99,,2013-11-10 03:03:00,
2013-11-09 21:44:00,39.0,28.0,-100.00,SSW,210,7.0,17.0,65,-99.99,,,-99.99,,2013-11-10 03:44:00,
2013-11-09 21:54:00,39.0,28.0,-100.00,SSW,210,7.0,17.0,65,-99.99,,,-99.99,,2013-11-10 03:54:00,
2013-11-09 22:02:00,-999.0,-99.9,-100.00,SSW,210,7.0,17.0,-999,-99.99,,,-99.99,,2013-11-10 04:02:00,
2013-11-09 22:43:00,39.0,29.0,-100.00,SSW,210,9.0,17.0,66,-99.99,,,-99.99,,2013-11-10 04:43:00,
2013-11-09 22:52:00,39.0,29.0,-100.00,SSW,210,9.0,17.0,66,-99.99,,,-99.99,,2013-11-10 04:52:00,
2013-11-09 23:03:00,39.0,29.0,-100.00,SSW,210,9.0,17.0,66,-99.99,,,-99.99,,2013-11-10 05:03:00,
2013-11-09 23:43:00,39.0,28.0,-100.00,SW,215,12.0,23.0,66,-99.99,,,-99.99,,2013-11-10 05:43:00,
2013-11-09 23:54:00,39.0,28.0,-100.00,SW,215,12.0,23.0,66,-99.99,,,-99.99,,2013-11-10 05:54:00,